TimeEST,TemperatureF,Dew PointF,Humidity,Sea Level PressureIn,VisibilityMPH,Wind Direction,Wind SpeedMPH,Gust SpeedMPH,PrecipitationIn,Events,Conditions,WindDirDegrees,DateUTC
12:51 AM,60.1,50.0,69,29.67,10.0,South,11.5,21.9,N/A,,Overcast,180,2013-01-30 05:51:00
1:51 AM,60.1,50.0,69,29.63,10.0,South,11.5,-,N/A,,Overcast,180,2013-01-30 06:51:00
2:51 AM,59.0,48.0,67,29.61,10.0,South,13.8,-,N/A,,Overcast,170,2013-01-30 07:51:00
3:51 AM,60.1,48.0,64,29.55,10.0,South,17.3,25.3,N/A,,Overcast,180,2013-01-30 08:51:00
4:51 AM,60.1,48.0,64,29.50,10.0,South,13.8,24.2,N/A,,Mostly Cloudy,170,2013-01-30 09:51:00
5:51 AM,61.0,48.0,62,29.47,10.0,South,16.1,24.2,N/A,,Mostly Cloudy,180,2013-01-30 10:51:00
6:51 AM,60.1,48.9,67,29.44,10.0,SSE,12.7,19.6,N/A,,Overcast,160,2013-01-30 11:51:00
7:51 AM,61.0,50.0,67,29.40,10.0,SSE,11.5,19.6,N/A,,Overcast,160,2013-01-30 12:51:00
8:51 AM,63.0,52.0,67,29.36,10.0,South,19.6,25.3,0.01,Rain,Light Rain,170,2013-01-30 13:51:00
9:26 AM,62.6,55.4,77,29.45,0.5,WSW,32.2,40.3,0.01,Rain,Heavy Rain,250,2013-01-30 14:26:00
9:29 AM,60.8,55.4,82,29.46,0.5,WSW,29.9,40.3,0.02,Rain-Thunderstorm,Heavy Thunderstorms and Rain,240,2013-01-30 14:29:00
9:41 AM,57.2,55.4,94,29.48,1.5,WSW,18.4,29.9,0.10,Rain-Thunderstorm,Thunderstorms and Rain,250,2013-01-30 14:41:00
9:43 AM,57.2,55.4,94,29.48,1.5,WSW,17.3,29.9,0.10,Rain-Thunderstorm,Thunderstorms and Rain,250,2013-01-30 14:43:00
9:51 AM,57.0,55.0,93,29.47,1.5,WSW,11.5,23.0,0.11,Rain,Light Rain,250,2013-01-30 14:51:00
9:58 AM,57.2,55.4,94,29.48,8.0,WSW,11.5,20.7,0.00,Rain,Light Rain,250,2013-01-30 14:58:00
10:17 AM,57.2,55.4,94,29.47,7.0,WSW,9.2,-,0.01,Rain,Light Rain,240,2013-01-30 15:17:00
10:51 AM,57.0,55.0,93,29.46,10.0,SSW,9.2,-,0.02,Rain,Light Rain,200,2013-01-30 15:51:00
11:51 AM,57.0,53.1,87,29.42,10.0,South,12.7,-,0.02,Rain,Light Rain,190,2013-01-30 16:51:00
12:51 PM,55.9,52.0,87,29.41,7.0,South,13.8,25.3,0.01,Rain,Light Rain,190,2013-01-30 17:51:00
1:51 PM,55.9,51.1,84,29.34,10.0,South,16.1,24.2,0.01,,Overcast,180,2013-01-30 18:51:00
2:51 PM,55.9,50.0,80,29.34,10.0,South,18.4,28.8,0.00,Rain,Light Rain,180,2013-01-30 19:51:00
3:51 PM,55.9,48.9,77,29.33,10.0,South,20.7,31.1,0.00,,Overcast,180,2013-01-30 20:51:00
4:22 PM,55.4,50.0,82,29.35,10.0,South,11.5,20.7,N/A,,Overcast,190,2013-01-30 21:22:00
4:51 PM,55.0,50.0,83,29.33,10.0,South,15.0,21.9,N/A,,Overcast,170,2013-01-30 21:51:00
5:29 PM,55.4,50.0,82,29.27,10.0,South,13.8,23.0,0.00,,Overcast,170,2013-01-30 22:29:00
5:51 PM,55.0,50.0,83,29.26,10.0,South,15.0,20.7,0.00,,Overcast,170,2013-01-30 22:51:00
6:06 PM,55.4,50.0,82,29.28,10.0,South,12.7,20.7,N/A,,Overcast,180,2013-01-30 23:06:00
6:51 PM,55.0,50.0,83,29.25,10.0,South,17.3,24.2,N/A,,Overcast,170,2013-01-30 23:51:00
7:42 PM,55.4,50.0,82,29.21,10.0,South,10.4,24.2,N/A,,Overcast,180,2013-01-31 00:42:00
7:51 PM,55.9,50.0,80,29.21,10.0,South,9.2,-,N/A,,Overcast,180,2013-01-31 00:51:00
8:28 PM,55.4,50.0,82,29.20,10.0,South,13.8,21.9,N/A,,Overcast,190,2013-01-31 01:28:00
8:51 PM,55.9,50.0,80,29.16,10.0,South,11.5,19.6,N/A,,Overcast,190,2013-01-31 01:51:00
9:51 PM,52.0,45.0,77,29.19,10.0,SW,23.0,34.5,0.00,Rain,Light Rain,230,2013-01-31 02:51:00
10:04 PM,51.8,46.4,82,29.19,10.0,SW,17.3,34.5,0.00,Rain,Light Rain,230,2013-01-31 03:04:00
10:51 PM,52.0,42.1,69,29.17,10.0,SW,17.3,31.1,0.00,Rain,Light Rain,220,2013-01-31 03:51:00
11:22 PM,44.6,39.2,81,29.20,8.0,West,20.7,36.8,0.00,Rain,Light Rain,280,2013-01-31 04:22:00
11:51 PM,37.9,34.0,86,29.27,8.0,West,29.9,41.4,0.02,Rain,Light Rain,270,2013-01-31 04:51:00